This is the latest recevied weather packets stored in our database for station/object SP9MUF-14. If no packets are shown the sender has not sent any weather packets the latest 10 day(s).
| Time | Temp. | Humidity | Pressure | Rain* | Wind** | Luminosity | Snow |
|---|---|---|---|---|---|---|---|
| 1787839545 | 25.56° C | 38% | 1019.7 hPa | 0 mm | - | 318 W/m² | - |
| 1787839243 | 25.56° C | 39% | 1019.8 hPa | 0 mm | - | 331 W/m² | - |
| 1787838941 | 25.56° C | 40% | 1019.8 hPa | 0 mm | - | 335 W/m² | - |
| 1787838336 | 25.56° C | 38% | 1019.8 hPa | 0 mm | - | 370 W/m² | - |
| 1787837732 | 26.67° C | 37% | 1019.7 hPa | 0 mm | - | 393 W/m² | - |
| 1787837429 | 25.56° C | 38% | 1019.8 hPa | 0 mm | - | 418 W/m² | - |
| 1787837127 | 25.56° C | 39% | 1020 hPa | 0 mm | - | 421 W/m² | - |
| 1787836825 | 25.56° C | 39% | 1019.9 hPa | 0 mm | - | 432 W/m² | - |
| 1787836525 | 25.56° C | 40% | 1020 hPa | 0 mm | - | 447 W/m² | - |
| 1787836221 | 25.56° C | 40% | 1020.1 hPa | 0 mm | - | 450 W/m² | - |
| 1787835616 | 25.56° C | 39% | 1020.2 hPa | 0 mm | - | 488 W/m² | - |
| 1787835314 | 25.56° C | 39% | 1020.2 hPa | 0 mm | - | 504 W/m² | - |
| 1787835012 | 25° C | 42% | 1020.3 hPa | 0 mm | - | 406 W/m² | - |
| 1787834712 | 25.56° C | 41% | 1020.2 hPa | 0 mm | - | 542 W/m² | - |
| 1787834407 | 25.56° C | 41% | 1020.1 hPa | 0 mm | - | 534 W/m² | - |
| 1787834105 | 25.56° C | 40% | 1020.3 hPa | 0 mm | - | 544 W/m² | - |
| 1787833803 | 25.56° C | 40% | 1020.5 hPa | 0 mm | - | 567 W/m² | - |
| 1787833501 | 25° C | 41% | 1020.2 hPa | 0 mm | - | 569 W/m² | - |
| 1787833199 | 25.56° C | 39% | 1020.3 hPa | 0 mm | - | 582 W/m² | - |
| 1787832896 | 25.56° C | 42% | 1020.4 hPa | 0 mm | - | 578 W/m² | - |
| 1787832594 | 25.56° C | 40% | 1020.4 hPa | 0 mm | - | 595 W/m² | - |
| 1787831989 | 25° C | 43% | 1020.6 hPa | 0 mm | - | 623 W/m² | - |
| 1787831687 | 25.56° C | 43% | 1020.5 hPa | 0 mm | - | 609 W/m² | - |
| 1787831385 | 25.56° C | 41% | 1020.6 hPa | 0 mm | - | 610 W/m² | - |
| 1787831083 | 25.56° C | 42% | 1020.6 hPa | 0 mm | - | 640 W/m² | - |
* Rain latest hour (hover to see other rain measurements)
** Current wind speed in m/s (hover to see current wind gust speed)